Home > Weather > Menongue > Past weeks

Flag for Angola Weather for the Past 2 Weeks in Menongue, Angola

Now
68 °F

Mild.


Feels Like: 68 °F
Forecast: 63 / 72 °F
Wind: 5 mph from West

Location: Grootfontein Airport

Current Time: Feb 11, 2016 at 4:18:59 AM

Latest Report: Feb 11, 2016 at 3:00 AM


Visibility: N/A

Pressure: 30.07 "Hg (25.61 "Hg at 1378m altitude)

Humidity: 60%

Dew point: 54 °F

Location of MenongueLocation

Historic Weather in Menongue — Graph

°F

Menongue Temperature Yesterday

Maximum temperature yesterday: 91 °F (at 1:00 PM)
Minimum temperature yesterday: 63 °F (at 2:00 AM)
Average temperature yesterday: 77 °F

High & Low Weather Summary for the Past Weeks

 TemperatureHumidityPressure
High97 °F (Feb 5, 2:00 PM)94% (Feb 1, 2:00 AM)30.24 "Hg (Feb 1, 2:00 AM)
Low61 °F (Feb 1, 2:00 AM)14% (Jan 27, 4:00 PM)29.98 "Hg (Feb 5, 3:00 PM)
Average78 °F50%30.13 "Hg
* Reported Jan 27 7:00 AM — Feb 11 3:00 AM, Menongue, Weather by CustomWeather, © 2016

Note: Actual official high and low records may vary slightly from our data, if they occured in-between our weather recording intervals... More about our weather records

Advertising

Menongue Weather History for the Previous 24 Hours

 ConditionsComfort  
Time TempWeatherWind HumidityBarometerVisibility
3:00 AM
Thu, Feb 11
68 °FMild.5 mph60%30.07 "HgN/A
2:00 AM68 °FMild.5 mph69%30.07 "HgN/A
1:00 AM68 °FMild.5 mph69%30.07 "HgN/A
12:00 AM70 °FMild.5 mph64%30.09 "HgN/A
11:00 PM
Wed, Feb 10
72 °FMild.3 mph57%30.09 "HgN/A
10:00 PM73 °FMild.5 mph53%30.09 "HgN/A
9:00 PM79 °FPleasantly warm.18 mph39%30.09 "HgN/A
8:00 PM77 °FWarm.5 mph44%30.04 "HgN/A
7:00 PM79 °FPleasantly warm.5 mph39%30.04 "HgN/A
6:00 PM86 °FPleasantly warm.5 mph29%30.01 "HgN/A
5:00 PM91 °FHot.2 mph21%30.01 "HgN/A
4:00 PM90 °FHot.2 mph22%30.01 "HgN/A
3:00 PM90 °FHot.6 mph24%30.04 "HgN/A
2:00 PM91 °FHot.6 mph24%30.07 "HgN/A
1:00 PM91 °FHot.5 mph26%30.09 "HgN/A
12:00 PM90 °FHot.3 mph29%30.12 "HgN/A
11:00 AM86 °FPleasantly warm.7 mph31%30.15 "HgN/A
10:00 AM84 °FPleasantly warm.8 mph33%30.15 "HgN/A
9:00 AM82 °FPleasantly warm.5 mph35%30.18 "HgN/A
8:00 AM75 °FMild.6 mph54%30.18 "HgN/A
7:00 AM72 °FMild.3 mph61%30.15 "HgN/A
6:00 AM63 °FMild.2 mph68%30.12 "HgN/A
5:00 AM63 °FMild.3 mph64%30.09 "HgN/A
4:00 AM66 °FMild.5 mph60%30.09 "HgN/A
Weather by CustomWeather, © 2016

See weather overviewHow to use our weather pages